Location: MAC-Johnson Site
(33.6264°N, 81.2093°W)
Time: 20:53:51
(UTC-04:00)

BlueWalker 3 - Pass Details

Date: 15 September 2024
Orbit: 472 x 485 km, 53.2° (Epoch: 10 October)

Event Time Altitude Azimuth Distance (km) Brightness Sun altitude
Rises 21:31:03 0° 301° (WNW) 2,545 6.8 -25.3°
Reaches altitude 10° 21:33:32 10° 286° (WNW) 1,665 5.6 -25.8°
Enters shadow 21:36:27 22° 235° (SW) 1,094 3.9 -26.3°
